Meath Environmental Platform

Observations for Trim Patrick St

Time AQI Temp °C Hum % Pres Pa CO μg/m³ H₂S μg/m³ NO μg/m³ NO₂ μg/m³ O₃ μg/m³ SO₂ μg/m³ PM1 μg/m³ PM2.5 μg/m³ PM10 μg/m³
Saturday 8 August 2026
08:08 1 18.9 65 114,185 0.19 0 2.55 12.05 21.77 1.23 2.86 6.92 7.61
08:07 1 18.8 65 4,691 0.19 0 2.52 13.19 25.39 0.59 3.71 7.63 8.4
08:06 1 18.8 66 8,788 0.22 0 2.46 16.73 25.32 1.02 4.57 9.06 9.97
08:05 1 18.7 66 12,886 0.21 0 2.54 16.4 24.42 1.42 3.71 7.57 8.33
08:04 1 18.7 66 16,117 0.2 0 2.64 12.56 23.36 1.39 3.71 8.3 9.13
08:02 1 18.6 66 23,540 0.21 0 2.49 13.51 26.26 1.11 4.57 8.31 9.14
08:01 1 18.5 67 27,597 0.23 0 2.44 12.42 20.92 0.47 3.71 8.27 9.09
08:00 1 18.5 67 30,620 0.24 0 2.43 13.45 23.73 0.85 2.86 6.8 7.48
07:58 1 18.3 67 36,970 0.25 0 2.46 16.22 19.6 0.48 3.71 7.52 8.27
07:56 1 18.2 67 38,460 0.23 0 2.5 16.31 24.59 0.69 3.71 7.55 8.31
07:55 1 18.2 67 38,460 0.24 0 2.48 20.07 26.13 0.92 4.57 8.25 9.08
07:52 1 18 68 38,460 0.27 0 2.64 17.93 24.75 0.93 3.71 8.22 9.04
07:51 1 17.9 68 38,460 0.25 0 2.42 18.02 20.48 0.64 3.71 8.17 8.99
07:50 1 17.9 68 38,460 0.27 0 2.37 13.49 23.67 0.77 2.86 6.72 7.39
07:49 1 17.9 68 38,460 0.28 0 2.35 14.1 22.46 1.5 2.86 7.43 8.18
07:48 1 17.8 68 38,460 0.25 0 2.43 13.91 24.81 0.15 2.86 6.76 7.44
07:47 1 17.8 68 38,460 0.24 0 2.36 14.36 24.55 0.52 4.57 8.88 9.76
07:46 1 17.7 68 38,460 0.25 0.59 2.4 22.81 27.98 0.19 2 6.72 7.39
07:45 1 17.6 68 38,460 0.26 0 2.39 18.18 20.96 0.12 4.57 8.87 9.75
07:44 1 17.6 69 38,460 0.26 0 2.36 14.67 25.82 0.17 4.57 8.12 8.93